iso_date,Year,Hour,Min,DOY,POS_DOY,Lat,Lon,BP,Ts,Ta,has_bp,has_ts,has_ta,BuoyID,Buoy_Type,Buoy_Owner,Logistics,Hemisphere
2021-07-06T16:00:02Z,2021,16,0,187.6667,187.6667,61.851,-11.54,1004.5,11.32,-999.0,yes,yes,no,300234068446190,BD2GHI,AOML,UNKNOWN,North
2021-07-06T16:59:57Z,2021,17,0,187.7083,187.7083,61.851,-11.538,1005.1,11.34,-999.0,yes,yes,no,300234068446190,BD2GHI,AOML,UNKNOWN,North
2021-07-06T18:01:00Z,2021,18,1,187.7507,187.7507,61.853,-11.536,1005.6,11.33,-999.0,yes,yes,no,300234068446190,BD2GHI,AOML,UNKNOWN,North
2021-07-06T19:00:02Z,2021,19,0,187.7917,187.7917,61.855,-11.536,1005.6,11.35,-999.0,yes,yes,no,300234068446190,BD2GHI,AOML,UNKNOWN,North
2021-07-06T19:59:57Z,2021,20,0,187.8333,187.8333,61.858,-11.54,1005.8,11.36,-999.0,yes,yes,no,300234068446190,BD2GHI,AOML,UNKNOWN,North
2021-07-06T21:00:00Z,2021,21,0,187.875,187.875,61.862,-11.546,1006.0,11.36,-999.0,yes,yes,no,300234068446190,BD2GHI,AOML,UNKNOWN,North
2021-07-06T22:00:02Z,2021,22,0,187.9167,187.9167,61.868,-11.552,1006.2,11.34,-999.0,yes,yes,no,300234068446190,BD2GHI,AOML,UNKNOWN,North
2021-07-06T22:59:57Z,2021,23,0,187.9583,187.9583,61.87,-11.552,1006.4,11.31,-999.0,yes,yes,no,300234068446190,BD2GHI,AOML,UNKNOWN,North
2021-07-07T00:00:00Z,2021,0,0,188.0,188.0,61.873,-11.557,1006.6,11.31,-999.0,yes,yes,no,300234068446190,BD2GHI,AOML,UNKNOWN,North
2021-07-07T01:00:02Z,2021,1,0,188.0417,188.0417,61.876,-11.56,1006.9,11.3,-999.0,yes,yes,no,300234068446190,BD2GHI,AOML,UNKNOWN,North
2021-07-07T01:59:57Z,2021,2,0,188.0833,188.0833,61.878,-11.563,1007.0,11.3,-999.0,yes,yes,no,300234068446190,BD2GHI,AOML,UNKNOWN,North
2021-07-07T03:00:00Z,2021,3,0,188.125,188.125,61.879,-11.562,1007.1,11.31,-999.0,yes,yes,no,300234068446190,BD2GHI,AOML,UNKNOWN,North
2021-07-07T04:00:02Z,2021,4,0,188.1667,188.1667,61.879,-11.56,1007.3,11.3,-999.0,yes,yes,no,300234068446190,BD2GHI,AOML,UNKNOWN,North
2021-07-07T04:59:57Z,2021,5,0,188.2083,188.2083,61.877,-11.558,1007.8,11.29,-999.0,yes,yes,no,300234068446190,BD2GHI,AOML,UNKNOWN,North
2021-07-07T06:00:00Z,2021,6,0,188.25,188.25,61.878,-11.558,1008.2,11.29,-999.0,yes,yes,no,300234068446190,BD2GHI,AOML,UNKNOWN,North
2021-07-07T07:00:02Z,2021,7,0,188.2917,188.2917,61.881,-11.559,1008.4,11.3,-999.0,yes,yes,no,300234068446190,BD2GHI,AOML,UNKNOWN,North
2021-07-07T07:59:57Z,2021,8,0,188.3333,188.3333,61.883,-11.564,1008.6,11.31,-999.0,yes,yes,no,300234068446190,BD2GHI,AOML,UNKNOWN,North
2021-07-07T09:00:00Z,2021,9,0,188.375,188.375,61.886,-11.569,1009.5,11.31,-999.0,yes,yes,no,300234068446190,BD2GHI,AOML,UNKNOWN,North
2021-07-07T10:00:02Z,2021,10,0,188.4167,188.4167,61.89,-11.574,1009.9,11.35,-999.0,yes,yes,no,300234068446190,BD2GHI,AOML,UNKNOWN,North
2021-07-07T10:59:57Z,2021,11,0,188.4583,188.4583,61.893,-11.582,1010.3,11.39,-999.0,yes,yes,no,300234068446190,BD2GHI,AOML,UNKNOWN,North
2021-07-07T12:00:00Z,2021,12,0,188.5,188.5,61.894,-11.592,1010.8,11.42,-999.0,yes,yes,no,300234068446190,BD2GHI,AOML,UNKNOWN,North
2021-07-07T13:00:02Z,2021,13,0,188.5417,188.5417,61.896,-11.599,1011.2,11.48,-999.0,yes,yes,no,300234068446190,BD2GHI,AOML,UNKNOWN,North
2021-07-07T13:59:57Z,2021,14,0,188.5833,188.5833,61.899,-11.606,1011.4,11.53,-999.0,yes,yes,no,300234068446190,BD2GHI,AOML,UNKNOWN,North
2021-07-07T15:00:00Z,2021,15,0,188.625,188.625,61.901,-11.607,1011.3,11.54,-999.0,yes,yes,no,300234068446190,BD2GHI,AOML,UNKNOWN,North
2021-07-07T16:00:02Z,2021,16,0,188.6667,188.6667,61.902,-11.607,1011.5,11.57,-999.0,yes,yes,no,300234068446190,BD2GHI,AOML,UNKNOWN,North
2021-07-07T16:59:57Z,2021,17,0,188.7083,188.7083,61.903,-11.607,1011.6,11.55,-999.0,yes,yes,no,300234068446190,BD2GHI,AOML,UNKNOWN,North
2021-07-07T18:00:00Z,2021,18,0,188.75,188.75,61.904,-11.604,1012.0,11.58,-999.0,yes,yes,no,300234068446190,BD2GHI,AOML,UNKNOWN,North
2021-07-07T19:00:02Z,2021,19,0,188.7917,188.7917,61.907,-11.602,1012.3,11.56,-999.0,yes,yes,no,300234068446190,BD2GHI,AOML,UNKNOWN,North
2021-07-07T19:59:57Z,2021,20,0,188.8333,188.8333,61.907,-11.603,1012.7,11.58,-999.0,yes,yes,no,300234068446190,BD2GHI,AOML,UNKNOWN,North
2021-07-07T21:00:00Z,2021,21,0,188.875,188.875,61.906,-11.607,1013.0,11.58,-999.0,yes,yes,no,300234068446190,BD2GHI,AOML,UNKNOWN,North
2021-07-07T22:01:03Z,2021,22,1,188.9174,188.9174,61.909,-11.613,1013.3,11.56,-999.0,yes,yes,no,300234068446190,BD2GHI,AOML,UNKNOWN,North
2021-07-07T22:59:57Z,2021,23,0,188.9583,188.9583,61.911,-11.621,1013.7,11.54,-999.0,yes,yes,no,300234068446190,BD2GHI,AOML,UNKNOWN,North
2021-07-08T00:00:00Z,2021,0,0,189.0,189.0,61.914,-11.629,1013.7,11.51,-999.0,yes,yes,no,300234068446190,BD2GHI,AOML,UNKNOWN,North
2021-07-08T01:00:02Z,2021,1,0,189.0417,189.0417,61.917,-11.633,1013.6,11.49,-999.0,yes,yes,no,300234068446190,BD2GHI,AOML,UNKNOWN,North
2021-07-08T01:59:57Z,2021,2,0,189.0833,189.0833,61.919,-11.637,1013.6,11.46,-999.0,yes,yes,no,300234068446190,BD2GHI,AOML,UNKNOWN,North
2021-07-08T03:00:00Z,2021,3,0,189.125,189.125,61.919,-11.643,1014.0,11.44,-999.0,yes,yes,no,300234068446190,BD2GHI,AOML,UNKNOWN,North
2021-07-08T04:00:02Z,2021,4,0,189.1667,189.1667,61.922,-11.644,1014.2,11.42,-999.0,yes,yes,no,300234068446190,BD2GHI,AOML,UNKNOWN,North
2021-07-08T04:59:57Z,2021,5,0,189.2083,189.2083,61.924,-11.644,1014.3,11.42,-999.0,yes,yes,no,300234068446190,BD2GHI,AOML,UNKNOWN,North
2021-07-08T06:00:00Z,2021,6,0,189.25,189.25,61.926,-11.639,1014.4,11.42,-999.0,yes,yes,no,300234068446190,BD2GHI,AOML,UNKNOWN,North
2021-07-08T07:00:02Z,2021,7,0,189.2917,189.2917,61.927,-11.636,1015.2,11.39,-999.0,yes,yes,no,300234068446190,BD2GHI,AOML,UNKNOWN,North
2021-07-08T07:59:57Z,2021,8,0,189.3333,189.3333,61.927,-11.633,1015.4,11.37,-999.0,yes,yes,no,300234068446190,BD2GHI,AOML,UNKNOWN,North
2021-07-08T09:00:00Z,2021,9,0,189.375,189.375,61.925,-11.631,1015.9,11.38,-999.0,yes,yes,no,300234068446190,BD2GHI,AOML,UNKNOWN,North
2021-07-08T10:00:02Z,2021,10,0,189.4167,189.4167,61.927,-11.636,1016.2,11.41,-999.0,yes,yes,no,300234068446190,BD2GHI,AOML,UNKNOWN,North
2021-07-08T10:59:57Z,2021,11,0,189.4583,189.4583,61.929,-11.641,1016.9,11.44,-999.0,yes,yes,no,300234068446190,BD2GHI,AOML,UNKNOWN,North
2021-07-08T12:00:00Z,2021,12,0,189.5,189.5,61.929,-11.648,1017.0,11.45,-999.0,yes,yes,no,300234068446190,BD2GHI,AOML,UNKNOWN,North
2021-07-08T13:00:02Z,2021,13,0,189.5417,189.5417,61.93,-11.655,1017.4,11.47,-999.0,yes,yes,no,300234068446190,BD2GHI,AOML,UNKNOWN,North
2021-07-08T13:59:57Z,2021,14,0,189.5833,189.5833,61.935,-11.665,1017.3,11.51,-999.0,yes,yes,no,300234068446190,BD2GHI,AOML,UNKNOWN,North
2021-07-08T15:04:01Z,2021,15,4,189.6278,189.6278,61.929,-11.678,1017.5,11.53,-999.0,yes,yes,no,300234068446190,BD2GHI,AOML,UNKNOWN,North
2021-07-08T16:00:02Z,2021,16,0,189.6667,189.6667,61.931,-11.679,1018.0,11.56,-999.0,yes,yes,no,300234068446190,BD2GHI,AOML,UNKNOWN,North
2021-07-08T17:00:57Z,2021,17,1,189.709,189.709,61.934,-11.677,1018.1,11.56,-999.0,yes,yes,no,300234068446190,BD2GHI,AOML,UNKNOWN,North
2021-07-08T18:02:00Z,2021,18,2,189.7514,189.7514,61.937,-11.671,1018.0,11.56,-999.0,yes,yes,no,300234068446190,BD2GHI,AOML,UNKNOWN,North
2021-07-08T19:00:02Z,2021,19,0,189.7917,189.7917,61.94,-11.664,1018.6,11.54,-999.0,yes,yes,no,300234068446190,BD2GHI,AOML,UNKNOWN,North
2021-07-08T19:59:57Z,2021,20,0,189.8333,189.8333,61.941,-11.66,1018.8,11.54,-999.0,yes,yes,no,300234068446190,BD2GHI,AOML,UNKNOWN,North
2021-07-08T21:00:00Z,2021,21,0,189.875,189.875,61.936,-11.66,1019.2,11.55,-999.0,yes,yes,no,300234068446190,BD2GHI,AOML,UNKNOWN,North
2021-07-08T22:02:55Z,2021,22,3,189.9187,189.9187,61.942,-11.661,1019.5,11.52,-999.0,yes,yes,no,300234068446190,BD2GHI,AOML,UNKNOWN,North
2021-07-08T23:00:57Z,2021,23,1,189.959,189.959,61.944,-11.664,1019.9,11.51,-999.0,yes,yes,no,300234068446190,BD2GHI,AOML,UNKNOWN,North
2021-07-09T00:00:00Z,2021,0,0,190.0,190.0,61.946,-11.668,1019.8,11.5,-999.0,yes,yes,no,300234068446190,BD2GHI,AOML,UNKNOWN,North
2021-07-09T01:00:02Z,2021,1,0,190.0417,190.0417,61.947,-11.673,1020.0,11.48,-999.0,yes,yes,no,300234068446190,BD2GHI,AOML,UNKNOWN,North
2021-07-09T01:59:57Z,2021,2,0,190.0833,190.0833,61.949,-11.677,1020.1,11.46,-999.0,yes,yes,no,300234068446190,BD2GHI,AOML,UNKNOWN,North
2021-07-09T03:01:00Z,2021,3,1,190.1257,190.1257,61.948,-11.682,1020.1,11.44,-999.0,yes,yes,no,300234068446190,BD2GHI,AOML,UNKNOWN,North
2021-07-09T04:02:03Z,2021,4,2,190.1681,190.1681,61.95,-11.684,1020.1,11.44,-999.0,yes,yes,no,300234068446190,BD2GHI,AOML,UNKNOWN,North
2021-07-09T04:59:57Z,2021,5,0,190.2083,190.2083,61.95,-11.683,1019.8,11.44,-999.0,yes,yes,no,300234068446190,BD2GHI,AOML,UNKNOWN,North
2021-07-09T06:00:00Z,2021,6,0,190.25,190.25,61.95,-11.68,1020.3,11.43,-999.0,yes,yes,no,300234068446190,BD2GHI,AOML,UNKNOWN,North
2021-07-09T07:01:03Z,2021,7,1,190.2924,190.2924,61.951,-11.68,1020.6,11.44,-999.0,yes,yes,no,300234068446190,BD2GHI,AOML,UNKNOWN,North
2021-07-09T07:59:57Z,2021,8,0,190.3333,190.3333,61.954,-11.681,1020.7,11.45,-999.0,yes,yes,no,300234068446190,BD2GHI,AOML,UNKNOWN,North
2021-07-09T09:00:00Z,2021,9,0,190.375,190.375,61.955,-11.683,1020.8,11.44,-999.0,yes,yes,no,300234068446190,BD2GHI,AOML,UNKNOWN,North
2021-07-09T10:00:02Z,2021,10,0,190.4167,190.4167,61.961,-11.686,1021.0,11.45,-999.0,yes,yes,no,300234068446190,BD2GHI,AOML,UNKNOWN,North
2021-07-09T11:02:58Z,2021,11,3,190.4604,190.4604,61.966,-11.684,1020.9,11.47,-999.0,yes,yes,no,300234068446190,BD2GHI,AOML,UNKNOWN,North
2021-07-09T12:00:00Z,2021,12,0,190.5,190.5,61.968,-11.685,1021.0,11.49,-999.0,yes,yes,no,300234068446190,BD2GHI,AOML,UNKNOWN,North
2021-07-09T13:00:02Z,2021,13,0,190.5417,190.5417,61.97,-11.687,1020.8,11.57,-999.0,yes,yes,no,300234068446190,BD2GHI,AOML,UNKNOWN,North
2021-07-09T13:59:57Z,2021,14,0,190.5833,190.5833,61.97,-11.69,1021.0,11.57,-999.0,yes,yes,no,300234068446190,BD2GHI,AOML,UNKNOWN,North
2021-07-09T15:00:00Z,2021,15,0,190.625,190.625,61.967,-11.692,1020.5,11.58,-999.0,yes,yes,no,300234068446190,BD2GHI,AOML,UNKNOWN,North
2021-07-09T16:01:03Z,2021,16,1,190.6674,190.6674,61.965,-11.698,1020.3,11.59,-999.0,yes,yes,no,300234068446190,BD2GHI,AOML,UNKNOWN,North
2021-07-09T17:00:57Z,2021,17,1,190.709,190.709,62.064,-11.67,1020.3,11.6,-999.0,yes,yes,no,300234068446190,BD2GHI,AOML,UNKNOWN,North
2021-07-09T18:01:00Z,2021,18,1,190.7507,190.7507,61.963,-11.715,1020.2,11.6,-999.0,yes,yes,no,300234068446190,BD2GHI,AOML,UNKNOWN,North
2021-07-09T19:00:02Z,2021,19,0,190.7917,190.7917,61.968,-11.722,1020.3,11.59,-999.0,yes,yes,no,300234068446190,BD2GHI,AOML,UNKNOWN,North
2021-07-09T19:59:57Z,2021,20,0,190.8333,190.8333,61.975,-11.725,1020.2,11.59,-999.0,yes,yes,no,300234068446190,BD2GHI,AOML,UNKNOWN,North
2021-07-09T21:00:00Z,2021,21,0,190.875,190.875,61.982,-11.724,1020.4,11.58,-999.0,yes,yes,no,300234068446190,BD2GHI,AOML,UNKNOWN,North
2021-07-09T22:00:02Z,2021,22,0,190.9167,190.9167,61.99,-11.715,1020.5,11.57,-999.0,yes,yes,no,300234068446190,BD2GHI,AOML,UNKNOWN,North
2021-07-09T23:00:57Z,2021,23,1,190.959,190.959,61.997,-11.718,1020.3,11.56,-999.0,yes,yes,no,300234068446190,BD2GHI,AOML,UNKNOWN,North
2021-07-10T00:00:00Z,2021,0,0,191.0,191.0,62.001,-11.712,1020.2,11.56,-999.0,yes,yes,no,300234068446190,BD2GHI,AOML,UNKNOWN,North
2021-07-10T01:00:02Z,2021,1,0,191.0417,191.0417,62.001,-11.708,1020.0,11.56,-999.0,yes,yes,no,300234068446190,BD2GHI,AOML,UNKNOWN,North
2021-07-10T01:59:57Z,2021,2,0,191.0833,191.0833,61.999,-11.711,1019.9,11.55,-999.0,yes,yes,no,300234068446190,BD2GHI,AOML,UNKNOWN,North
2021-07-10T03:00:00Z,2021,3,0,191.125,191.125,61.996,-11.719,1019.2,11.55,-999.0,yes,yes,no,300234068446190,BD2GHI,AOML,UNKNOWN,North
2021-07-10T04:00:02Z,2021,4,0,191.1667,191.1667,61.994,-11.729,1019.1,11.54,-999.0,yes,yes,no,300234068446190,BD2GHI,AOML,UNKNOWN,North
2021-07-10T04:59:57Z,2021,5,0,191.2083,191.2083,61.995,-11.745,1018.8,11.54,-999.0,yes,yes,no,300234068446190,BD2GHI,AOML,UNKNOWN,North
2021-07-10T06:00:00Z,2021,6,0,191.25,191.25,62.0,-11.752,1019.2,11.54,-999.0,yes,yes,no,300234068446190,BD2GHI,AOML,UNKNOWN,North
2021-07-10T07:00:02Z,2021,7,0,191.2917,191.2917,62.007,-11.754,1018.9,11.54,-999.0,yes,yes,no,300234068446190,BD2GHI,AOML,UNKNOWN,North
2021-07-10T09:01:00Z,2021,9,1,191.3757,191.3757,62.021,-11.751,1018.7,11.56,-999.0,yes,yes,no,300234068446190,BD2GHI,AOML,UNKNOWN,North
2021-07-10T10:00:02Z,2021,10,0,191.4167,191.4167,62.027,-11.746,1019.1,11.55,-999.0,yes,yes,no,300234068446190,BD2GHI,AOML,UNKNOWN,North
2021-07-10T10:59:57Z,2021,11,0,191.4583,191.4583,62.03,-11.74,1018.5,11.58,-999.0,yes,yes,no,300234068446190,BD2GHI,AOML,UNKNOWN,North
2021-07-10T12:00:00Z,2021,12,0,191.5,191.5,62.032,-11.738,1018.8,11.7,-999.0,yes,yes,no,300234068446190,BD2GHI,AOML,UNKNOWN,North
2021-07-10T13:00:02Z,2021,13,0,191.5417,191.5417,62.031,-11.739,1018.6,11.82,-999.0,yes,yes,no,300234068446190,BD2GHI,AOML,UNKNOWN,North
2021-07-10T13:59:57Z,2021,14,0,191.5833,191.5833,62.032,-11.743,1018.4,11.97,-999.0,yes,yes,no,300234068446190,BD2GHI,AOML,UNKNOWN,North
2021-07-10T15:00:00Z,2021,15,0,191.625,191.625,62.031,-11.754,1018.0,12.04,-999.0,yes,yes,no,300234068446190,BD2GHI,AOML,UNKNOWN,North
2021-07-10T16:00:02Z,2021,16,0,191.6667,191.6667,62.034,-11.768,1017.6,12.11,-999.0,yes,yes,no,300234068446190,BD2GHI,AOML,UNKNOWN,North
2021-07-10T16:59:57Z,2021,17,0,191.7083,191.7083,62.035,-11.777,1017.5,12.07,-999.0,yes,yes,no,300234068446190,BD2GHI,AOML,UNKNOWN,North
2021-07-10T18:00:00Z,2021,18,0,191.75,191.75,62.04,-11.782,1017.4,12.02,-999.0,yes,yes,no,300234068446190,BD2GHI,AOML,UNKNOWN,North
2021-07-10T19:00:02Z,2021,19,0,191.7917,191.7917,62.046,-11.782,1017.5,11.81,-999.0,yes,yes,no,300234068446190,BD2GHI,AOML,UNKNOWN,North
2021-07-10T20:00:57Z,2021,20,1,191.834,191.834,62.049,-11.783,1017.6,11.81,-999.0,yes,yes,no,300234068446190,BD2GHI,AOML,UNKNOWN,North
2021-07-10T21:00:00Z,2021,21,0,191.875,191.875,62.056,-11.779,1017.7,11.66,-999.0,yes,yes,no,300234068446190,BD2GHI,AOML,UNKNOWN,North
2021-07-10T22:00:02Z,2021,22,0,191.9167,191.9167,62.061,-11.78,1017.5,11.65,-999.0,yes,yes,no,300234068446190,BD2GHI,AOML,UNKNOWN,North
2021-07-10T22:59:57Z,2021,23,0,191.9583,191.9583,62.067,-11.782,1017.3,11.91,-999.0,yes,yes,no,300234068446190,BD2GHI,AOML,UNKNOWN,North
2021-07-11T00:00:00Z,2021,0,0,192.0,192.0,62.071,-11.788,1017.1,11.9,-999.0,yes,yes,no,300234068446190,BD2GHI,AOML,UNKNOWN,North
2021-07-11T01:00:02Z,2021,1,0,192.0417,192.0417,62.075,-11.795,1017.3,11.95,-999.0,yes,yes,no,300234068446190,BD2GHI,AOML,UNKNOWN,North
2021-07-11T01:59:57Z,2021,2,0,192.0833,192.0833,62.079,-11.806,1017.1,11.93,-999.0,yes,yes,no,300234068446190,BD2GHI,AOML,UNKNOWN,North
2021-07-11T03:00:00Z,2021,3,0,192.125,192.125,62.084,-11.815,1016.6,11.92,-999.0,yes,yes,no,300234068446190,BD2GHI,AOML,UNKNOWN,North
2021-07-11T04:00:02Z,2021,4,0,192.1667,192.1667,62.086,-11.816,1016.6,11.87,-999.0,yes,yes,no,300234068446190,BD2GHI,AOML,UNKNOWN,North
2021-07-11T04:59:57Z,2021,5,0,192.2083,192.2083,62.09,-11.822,1016.5,11.89,-999.0,yes,yes,no,300234068446190,BD2GHI,AOML,UNKNOWN,North
2021-07-11T06:00:00Z,2021,6,0,192.25,192.25,62.092,-11.826,1016.6,11.88,-999.0,yes,yes,no,300234068446190,BD2GHI,AOML,UNKNOWN,North
2021-07-11T07:00:02Z,2021,7,0,192.2917,192.2917,62.095,-11.826,1016.5,11.87,-999.0,yes,yes,no,300234068446190,BD2GHI,AOML,UNKNOWN,North
2021-07-11T08:02:58Z,2021,8,3,192.3354,192.3354,62.097,-11.824,1016.7,11.86,-999.0,yes,yes,no,300234068446190,BD2GHI,AOML,UNKNOWN,North
2021-07-11T09:00:00Z,2021,9,0,192.375,192.375,62.1,-11.825,1016.8,11.88,-999.0,yes,yes,no,300234068446190,BD2GHI,AOML,UNKNOWN,North
2021-07-11T10:00:02Z,2021,10,0,192.4167,192.4167,62.104,-11.827,1016.9,11.88,-999.0,yes,yes,no,300234068446190,BD2GHI,AOML,UNKNOWN,North
2021-07-11T10:59:57Z,2021,11,0,192.4583,192.4583,62.109,-11.831,1016.8,11.92,-999.0,yes,yes,no,300234068446190,BD2GHI,AOML,UNKNOWN,North
2021-07-11T12:00:00Z,2021,12,0,192.5,192.5,62.112,-11.831,1016.9,11.94,-999.0,yes,yes,no,300234068446190,BD2GHI,AOML,UNKNOWN,North
2021-07-11T13:01:03Z,2021,13,1,192.5424,192.5424,62.115,-11.84,1017.2,11.94,-999.0,yes,yes,no,300234068446190,BD2GHI,AOML,UNKNOWN,North
2021-07-11T13:59:57Z,2021,14,0,192.5833,192.5833,62.118,-11.848,1016.8,11.98,-999.0,yes,yes,no,300234068446190,BD2GHI,AOML,UNKNOWN,North
2021-07-11T15:00:00Z,2021,15,0,192.625,192.625,62.12,-11.861,1016.4,12.01,-999.0,yes,yes,no,300234068446190,BD2GHI,AOML,UNKNOWN,North
2021-07-11T16:01:03Z,2021,16,1,192.6674,192.6674,62.123,-11.872,1016.6,12.02,-999.0,yes,yes,no,300234068446190,BD2GHI,AOML,UNKNOWN,North
2021-07-11T16:59:57Z,2021,17,0,192.7083,192.7083,62.125,-11.881,1016.3,12.04,-999.0,yes,yes,no,300234068446190,BD2GHI,AOML,UNKNOWN,North
2021-07-11T18:00:00Z,2021,18,0,192.75,192.75,62.127,-11.885,1016.4,12.07,-999.0,yes,yes,no,300234068446190,BD2GHI,AOML,UNKNOWN,North
2021-07-11T19:00:02Z,2021,19,0,192.7917,192.7917,62.128,-11.873,1016.3,12.07,-999.0,yes,yes,no,300234068446190,BD2GHI,AOML,UNKNOWN,North
2021-07-11T20:00:57Z,2021,20,1,192.834,192.834,62.133,-11.889,1016.2,12.05,-999.0,yes,yes,no,300234068446190,BD2GHI,AOML,UNKNOWN,North
2021-07-11T21:00:00Z,2021,21,0,192.875,192.875,62.138,-11.889,1016.2,12.04,-999.0,yes,yes,no,300234068446190,BD2GHI,AOML,UNKNOWN,North
2021-07-11T22:00:02Z,2021,22,0,192.9167,192.9167,62.143,-11.889,1016.5,12.03,-999.0,yes,yes,no,300234068446190,BD2GHI,AOML,UNKNOWN,North
2021-07-11T22:59:57Z,2021,23,0,192.9583,192.9583,62.148,-11.887,1016.2,12.02,-999.0,yes,yes,no,300234068446190,BD2GHI,AOML,UNKNOWN,North
2021-07-12T00:00:00Z,2021,0,0,193.0,193.0,62.154,-11.885,1016.2,12.0,-999.0,yes,yes,no,300234068446190,BD2GHI,AOML,UNKNOWN,North
2021-07-12T01:00:02Z,2021,1,0,193.0417,193.0417,62.155,-11.883,1016.2,11.99,-999.0,yes,yes,no,300234068446190,BD2GHI,AOML,UNKNOWN,North
2021-07-12T01:59:57Z,2021,2,0,193.0833,193.0833,62.154,-11.888,1015.9,12.0,-999.0,yes,yes,no,300234068446190,BD2GHI,AOML,UNKNOWN,North
2021-07-12T03:00:00Z,2021,3,0,193.125,193.125,62.153,-11.898,1015.6,11.98,-999.0,yes,yes,no,300234068446190,BD2GHI,AOML,UNKNOWN,North
2021-07-12T04:00:02Z,2021,4,0,193.1667,193.1667,62.153,-11.912,1015.4,11.97,-999.0,yes,yes,no,300234068446190,BD2GHI,AOML,UNKNOWN,North
2021-07-12T04:59:57Z,2021,5,0,193.2083,193.2083,62.155,-11.926,1015.3,11.98,-999.0,yes,yes,no,300234068446190,BD2GHI,AOML,UNKNOWN,North
2021-07-12T06:00:00Z,2021,6,0,193.25,193.25,62.159,-11.936,1015.5,11.98,-999.0,yes,yes,no,300234068446190,BD2GHI,AOML,UNKNOWN,North
2021-07-12T07:00:02Z,2021,7,0,193.2917,193.2917,62.164,-11.943,1015.4,11.98,-999.0,yes,yes,no,300234068446190,BD2GHI,AOML,UNKNOWN,North
2021-07-12T07:59:57Z,2021,8,0,193.3333,193.3333,62.17,-11.945,1015.2,12.01,-999.0,yes,yes,no,300234068446190,BD2GHI,AOML,UNKNOWN,North
2021-07-12T09:00:00Z,2021,9,0,193.375,193.375,62.176,-11.942,1015.4,12.06,-999.0,yes,yes,no,300234068446190,BD2GHI,AOML,UNKNOWN,North
2021-07-12T10:00:02Z,2021,10,0,193.4167,193.4167,62.181,-11.936,1015.7,12.15,-999.0,yes,yes,no,300234068446190,BD2GHI,AOML,UNKNOWN,North
2021-07-12T10:59:57Z,2021,11,0,193.4583,193.4583,62.187,-11.929,1015.6,12.13,-999.0,yes,yes,no,300234068446190,BD2GHI,AOML,UNKNOWN,North
2021-07-12T13:00:02Z,2021,13,0,193.5417,193.5417,62.191,-11.916,1015.5,12.26,-999.0,yes,yes,no,300234068446190,BD2GHI,AOML,UNKNOWN,North
2021-07-12T13:59:57Z,2021,14,0,193.5833,193.5833,62.191,-11.92,1015.5,12.37,-999.0,yes,yes,no,300234068446190,BD2GHI,AOML,UNKNOWN,North
2021-07-12T15:00:00Z,2021,15,0,193.625,193.625,62.191,-11.928,1015.3,12.39,-999.0,yes,yes,no,300234068446190,BD2GHI,AOML,UNKNOWN,North
2021-07-12T16:00:02Z,2021,16,0,193.6667,193.6667,62.189,-11.938,1015.6,12.31,-999.0,yes,yes,no,300234068446190,BD2GHI,AOML,UNKNOWN,North
2021-07-12T16:59:57Z,2021,17,0,193.7083,193.7083,62.19,-11.949,1015.6,12.32,-999.0,yes,yes,no,300234068446190,BD2GHI,AOML,UNKNOWN,North
2021-07-12T18:00:00Z,2021,18,0,193.75,193.75,62.191,-11.96,1015.3,12.33,-999.0,yes,yes,no,300234068446190,BD2GHI,AOML,UNKNOWN,North
2021-07-12T19:00:02Z,2021,19,0,193.7917,193.7917,62.196,-11.966,1015.7,12.29,-999.0,yes,yes,no,300234068446190,BD2GHI,AOML,UNKNOWN,North
2021-07-12T19:59:57Z,2021,20,0,193.8333,193.8333,62.201,-11.968,1015.7,12.27,-999.0,yes,yes,no,300234068446190,BD2GHI,AOML,UNKNOWN,North
2021-07-12T21:00:00Z,2021,21,0,193.875,193.875,62.208,-11.964,1015.4,12.22,-999.0,yes,yes,no,300234068446190,BD2GHI,AOML,UNKNOWN,North
2021-07-12T22:00:02Z,2021,22,0,193.9167,193.9167,62.216,-11.955,1015.5,12.21,-999.0,yes,yes,no,300234068446190,BD2GHI,AOML,UNKNOWN,North
2021-07-12T22:59:57Z,2021,23,0,193.9583,193.9583,62.222,-11.945,1015.7,12.2,-999.0,yes,yes,no,300234068446190,BD2GHI,AOML,UNKNOWN,North
2021-07-13T00:00:00Z,2021,0,0,194.0,194.0,62.228,-11.934,1015.6,12.17,-999.0,yes,yes,no,300234068446190,BD2GHI,AOML,UNKNOWN,North
2021-07-13T01:00:02Z,2021,1,0,194.0417,194.0417,62.231,-11.922,1015.5,12.13,-999.0,yes,yes,no,300234068446190,BD2GHI,AOML,UNKNOWN,North
2021-07-13T01:59:57Z,2021,2,0,194.0833,194.0833,62.231,-11.917,1015.6,12.02,-999.0,yes,yes,no,300234068446190,BD2GHI,AOML,UNKNOWN,North
2021-07-13T03:00:00Z,2021,3,0,194.125,194.125,62.229,-11.921,1015.4,12.03,-999.0,yes,yes,no,300234068446190,BD2GHI,AOML,UNKNOWN,North
2021-07-13T04:02:03Z,2021,4,2,194.1681,194.1681,62.225,-11.926,1015.2,11.93,-999.0,yes,yes,no,300234068446190,BD2GHI,AOML,UNKNOWN,North
2021-07-13T04:59:57Z,2021,5,0,194.2083,194.2083,62.222,-11.934,1014.9,11.92,-999.0,yes,yes,no,300234068446190,BD2GHI,AOML,UNKNOWN,North
2021-07-13T06:00:00Z,2021,6,0,194.25,194.25,62.225,-11.943,1014.9,11.91,-999.0,yes,yes,no,300234068446190,BD2GHI,AOML,UNKNOWN,North
2021-07-13T07:02:55Z,2021,7,3,194.2937,194.2937,62.229,-11.947,1015.1,11.91,-999.0,yes,yes,no,300234068446190,BD2GHI,AOML,UNKNOWN,North
2021-07-13T07:59:57Z,2021,8,0,194.3333,194.3333,62.231,-11.952,1015.3,11.88,-999.0,yes,yes,no,300234068446190,BD2GHI,AOML,UNKNOWN,North
2021-07-13T09:00:00Z,2021,9,0,194.375,194.375,62.236,-11.946,1015.6,11.89,-999.0,yes,yes,no,300234068446190,BD2GHI,AOML,UNKNOWN,North
2021-07-13T10:00:02Z,2021,10,0,194.4167,194.4167,62.244,-11.936,1015.5,11.92,-999.0,yes,yes,no,300234068446190,BD2GHI,AOML,UNKNOWN,North
2021-07-13T11:00:57Z,2021,11,1,194.459,194.459,62.248,-11.923,1015.5,11.98,-999.0,yes,yes,no,300234068446190,BD2GHI,AOML,UNKNOWN,North
2021-07-13T12:00:00Z,2021,12,0,194.5,194.5,62.254,-11.91,1015.1,12.0,-999.0,yes,yes,no,300234068446190,BD2GHI,AOML,UNKNOWN,North
2021-07-13T13:00:02Z,2021,13,0,194.5417,194.5417,62.255,-11.9,1015.5,12.06,-999.0,yes,yes,no,300234068446190,BD2GHI,AOML,UNKNOWN,North
2021-07-13T13:59:57Z,2021,14,0,194.5833,194.5833,62.256,-11.895,1015.5,12.07,-999.0,yes,yes,no,300234068446190,BD2GHI,AOML,UNKNOWN,North
2021-07-13T15:00:00Z,2021,15,0,194.625,194.625,62.254,-11.893,1015.8,12.05,-999.0,yes,yes,no,300234068446190,BD2GHI,AOML,UNKNOWN,North
2021-07-13T16:00:02Z,2021,16,0,194.6667,194.6667,62.249,-11.894,1015.7,12.09,-999.0,yes,yes,no,300234068446190,BD2GHI,AOML,UNKNOWN,North
2021-07-13T17:01:58Z,2021,17,2,194.7097,194.7097,62.247,-11.9,1015.7,12.12,-999.0,yes,yes,no,300234068446190,BD2GHI,AOML,UNKNOWN,North
2021-07-13T18:00:00Z,2021,18,0,194.75,194.75,62.247,-11.907,1015.7,12.15,-999.0,yes,yes,no,300234068446190,BD2GHI,AOML,UNKNOWN,North
2021-07-13T19:00:02Z,2021,19,0,194.7917,194.7917,62.248,-11.911,1015.1,12.14,-999.0,yes,yes,no,300234068446190,BD2GHI,AOML,UNKNOWN,North
2021-07-13T19:59:57Z,2021,20,0,194.8333,194.8333,62.248,-11.913,1014.9,12.12,-999.0,yes,yes,no,300234068446190,BD2GHI,AOML,UNKNOWN,North
2021-07-13T21:00:00Z,2021,21,0,194.875,194.875,62.253,-11.908,1015.4,12.13,-999.0,yes,yes,no,300234068446190,BD2GHI,AOML,UNKNOWN,North
2021-07-13T22:00:02Z,2021,22,0,194.9167,194.9167,62.259,-11.901,1015.6,12.12,-999.0,yes,yes,no,300234068446190,BD2GHI,AOML,UNKNOWN,North
2021-07-13T22:59:57Z,2021,23,0,194.9583,194.9583,62.263,-11.891,1015.2,12.13,-999.0,yes,yes,no,300234068446190,BD2GHI,AOML,UNKNOWN,North
2021-07-14T00:01:00Z,2021,0,1,195.0007,195.0007,62.266,-11.878,1014.6,12.13,-999.0,yes,yes,no,300234068446190,BD2GHI,AOML,UNKNOWN,North
2021-07-14T01:00:02Z,2021,1,0,195.0417,195.0417,62.268,-11.868,1014.1,12.11,-999.0,yes,yes,no,300234068446190,BD2GHI,AOML,UNKNOWN,North